Regional Weather Roundup
Issued by NWS Midland/Odessa, TX

Skip options and go directly to product.
Home | Oldest Version | Previous Version | Current Version | All | Text Only | Save Text | Print | Product List | Glossary Off

Skip product version selection by date and time.   

459
ASUS44 KMAF 271410
RWRMAF
MIDLAND AREA WEATHER ROUNDUP
NATIONAL WEATHER SERVICE MIDLAND TX
900 AM CDT WED AUG 27 2014

...IN SOUTHWEST TEXAS AND SOUTHEAST NEW MEXICO...

CITY           SKY/WX    TMP DP  RH WIND       PRES   REMARKS
ALPINE         SUNNY     74  55  52 CALM      30.27R
ANDREWS        FAIR      78  57  48 SW7       30.14S
ARTESIA        NOT AVBL
BIG SPRING     SUNNY     79  63  57 S10       30.14R
CARLSBAD       PTSUNNY   76  63  64 NW10      30.15R
DRYDEN           N/A     83  66  56 E7        30.08R
FORT STOCKTON  SUNNY     74  60  61 SW3       30.13R
GUAD PASS      CLOUDY    70  56  61 NE9       30.29R
HOBBS          MOSUNNY   72  59  64 SE5       30.17R
MARFA          MOSUNNY   66  57  72 CALM      30.26R
MIDLAND AIRPK  SUNNY     79  58  47 S7        30.14R
MIDLAND INTL   SUNNY     79  57  46 S9        30.12R
ODESSA         SUNNY     77  55  46 CALM      30.14R
PECOS          SUNNY     74  64  70 W7        30.11R
PRESIDIO       FAIR      81  56  42 N7        30.09S
SEMINOLE       SUNNY     76  57  52 S6        30.16R
SNYDER         SUNNY     78  65  65 S10       30.12S
WINK           SUNNY     78  58  49 SE9       30.10R
$$
...OTHER STATIONS IN TEXAS...

CITY           SKY/WX    TMP DP  RH WIND       PRES   REMARKS
ABILENE        SUNNY     80  67  64 S8        30.09R
AMARILLO       CLOUDY    69  65  86 SE10      30.18R
AUSTIN         MOSUNNY   83  73  72 CALM      30.02S
BROWNSVILLE    MOSUNNY   84  77  79 NW6       29.94R
CORPUS CHRISTI MOSUNNY   84  74  71 N10       29.95R
DALLAS FTW     SUNNY     83  70  64 VRB5      30.06R
DEL RIO        SUNNY     82  69  64 E9        30.02R
EL PASO        PTSUNNY   70  65  84 N12       30.19R
HOUSTON INT    MOSUNNY   82  73  74 NE8       30.00R
LUBBOCK        PTSUNNY   74  64  71 SE7       30.15R
SAN ANGELO     SUNNY     78  66  66 SW5       30.09R
SAN ANTONIO    SUNNY     82  71  69 E3        30.03R
WACO           SUNNY     80  70  71 E3        30.04R
WICHITA FALLS  NOT AVBL
$$
...OTHER LOCATIONS IN NEW MEXICO...

CITY           SKY/WX    TMP DP  RH WIND       PRES   REMARKS
ALAMAGORDO     CLOUDY    68  63  83 W3        30.20S
ALBUQUERQUE    MOSUNNY   62  57  83 W3        30.31R
CANNON AFB     PTSUNNY   68  61  77 CALM      30.23R
CLOVIS           N/A     68  61  77 N3        30.24S
HOLLOMAN AFB   MOSUNNY   65  65 100 W8        30.19R
ROSWELL        CLOUDY    70  62  76 N9        30.18R
RUIDOSO        PTSUNNY   55  55 100 SW7       30.38R
SANTA FE       PTSUNNY   58  56  93 S3        30.34R
TRUTH OR CONSE MOSUNNY   63  60  90 N8        30.25R
TUCUMCARI        N/A     70  65  84 S3        30.19R
$$

USA.gov is the U.S. government's official web portal to all federal, state and local government web resources and services.